Find Starlink 34535

NORAD ID: 64698 Int'l Des: 2025-142 Owner: SPXS Country: US Constellation: starlink operational
LEOCIRCULAR

現在のビュー

3D地球を読み込み中...

About Starlink 34535

Starlink 34535 (NORAD 64698) is a starlink constellation satellite (v2 mini) launched Jun 28, 2025 by SPXS of US. It operates in LEO, CIRCULAR orbit with a mass of 575.00 kg.

次回通過

Passes for default location (London). Set your location on the main map for personalized predictions.

高度履歴

Loading altitude history...

軌道要素

1 64698U 25142C 26237.16628891 .00002823 00000-0 24429-3 0 9997
2 64698 69.9993 249.7765 0003828 265.2260 94.8462 14.98335440 64705
Epoch: Aug 25, 2026 • Age: 10 hours

現在のステータス

高度 581.2 km
遠地点 / 近地点 N/A
速度 7.57 km/s
衛星直下点 49.03°N, 142.3°W
打ち上げ日 Jun 28, 2025
運用期間 1.1 years
タイプ internet

技術仕様

分類 Payload
質量 575.00 kg
乾燥質量 530.00 kg
総質量 575.00 kg
長さ 0.30 m
直径 4.10 m
スパン 29.00 m
形状 Box + pan
製造者 SPXS
バスタイプ Starlink V2MO
フェーズステータス In Orbit
所有者/国 SPXS/US

Most Searched